History for KNYNEWYO91

Midtown East, New York, NY — Current Conditions
Daily Summary for October 24, 2017
  Current: High: Low: Average:
Temperature: 70.1°F 70.3°F 69.8°F 70.1°F
Dew Point: 64.0°F 64.0°F 62.0°F 63.2°F
Humidity: 81% 81% 78% 80%
Wind Speed: - 0.0mph - 0.0mph
Wind Gust: - 0.0mph - -
Wind: North - - North
Pressure: 29.92in 30.04in 29.89in -
Precipitation: 0.00in      
Statistics for the rest of the month
    High: Low: Average:
Temperature:   78.0°F 48.3°F 67.4°F
Dew Point:   73.0°F 30.0°F 52.8°F
Humidity:   91.0% 31.0% 61.5%
Wind Speed:   0.0mph from the North - 0.0mph
Wind Gust:   0.0mph from the North - -
Wind:   - - North
Pressure:   30.73in 29.84in -
Precipitation:   0.00in    
KNYNEWYO91 Weather Graph
Tabular Data for October 24, 2017
Time Temp. Dew Point Pressure Wind Gust Humidity Rainfall
00:00 70.1°F 62.0°F 30.02in - 78% -
00:05 70.1°F 62.0°F 30.03in - 78% -
00:10 70.1°F 63.0°F 30.02in - 79% -
00:15 70.1°F 63.0°F 30.02in - 79% -
00:20 70.3°F 63.0°F 30.02in - 79% -
00:25 70.3°F 63.0°F 30.02in - 79% -
00:30 70.3°F 63.0°F 30.02in - 78% -
00:35 70.1°F 63.0°F 30.02in - 79% -
00:40 70.1°F 63.0°F 30.02in - 79% -
00:45 70.1°F 63.0°F 30.01in - 79% -
00:50 70.1°F 63.0°F 30.03in - 79% -
00:55 69.9°F 63.0°F 30.03in - 79% -
01:00 69.9°F 63.0°F 30.03in - 79% -
01:05 69.9°F 63.0°F 30.03in - 79% -
01:10 69.9°F 63.0°F 30.03in - 79% -
01:15 69.9°F 63.0°F 30.03in - 79% -
01:20 69.9°F 63.0°F 30.04in - 79% -
01:25 70.1°F 63.0°F 30.03in - 79% -
01:30 69.9°F 63.0°F 30.03in - 79% -
01:35 69.9°F 63.0°F 30.03in - 79% -
01:40 69.9°F 63.0°F 30.04in - 79% -
01:45 69.8°F 62.0°F 30.04in - 79% -
01:50 69.8°F 63.0°F 30.03in - 80% -
01:55 69.8°F 63.0°F 30.03in - 80% -
02:00 69.8°F 63.0°F 30.03in - 80% -
02:05 69.8°F 63.0°F 30.03in - 80% -
02:10 69.8°F 63.0°F 30.03in - 80% -
02:15 69.8°F 63.0°F 30.03in - 80% -
02:20 69.8°F 63.0°F 30.02in - 80% -
02:25 69.8°F 63.0°F 30.02in - 80% -
02:30 69.8°F 63.0°F 30.01in - 80% -
02:35 69.8°F 63.0°F 30.01in - 80% -
02:40 69.8°F 63.0°F 30.00in - 80% -
02:45 69.8°F 63.0°F 30.00in - 80% -
02:50 69.8°F 63.0°F 29.99in - 80% -
02:55 69.8°F 63.0°F 29.99in - 80% -
03:00 69.8°F 63.0°F 29.98in - 80% -
03:05 69.8°F 63.0°F 29.98in - 80% -
03:10 69.8°F 63.0°F 29.97in - 81% -
03:15 69.8°F 63.0°F 29.96in - 81% -
03:20 69.8°F 63.0°F 29.96in - 81% -
03:25 69.8°F 63.0°F 29.95in - 81% -
03:30 69.8°F 63.0°F 29.94in - 81% -
03:35 69.8°F 63.0°F 29.94in - 81% -
03:40 69.8°F 63.0°F 29.94in - 81% -
03:45 69.8°F 63.0°F 29.93in - 81% -
03:50 69.9°F 63.0°F 29.94in - 81% -
03:55 69.9°F 63.0°F 29.93in - 81% -
04:00 69.9°F 63.0°F 29.93in - 81% -
04:05 69.9°F 63.0°F 29.93in - 81% -
04:10 69.9°F 63.0°F 29.92in - 81% -
04:15 69.9°F 63.0°F 29.92in - 81% -
04:20 69.9°F 64.0°F 29.91in - 81% -
04:25 69.9°F 64.0°F 29.91in - 81% -
04:27 69.9°F 64.0°F 29.91in - 81% -
04:32 69.9°F 64.0°F 29.90in - 81% -
04:37 70.1°F 64.0°F 29.90in - 81% -
04:42 70.1°F 64.0°F 29.90in - 81% -
04:47 70.1°F 64.0°F 29.91in - 81% -
04:52 70.1°F 64.0°F 29.90in - 81% -
04:57 70.1°F 64.0°F 29.91in - 81% -
05:02 70.1°F 64.0°F 29.92in - 81% -
05:07 70.1°F 64.0°F 29.92in - 81% -
05:12 69.9°F 64.0°F 29.93in - 81% -
05:17 69.9°F 64.0°F 29.93in - 81% -
05:22 70.1°F 64.0°F 29.93in - 81% -
Comma Delimited File
Powered by Weather Underground, Inc.